Location: *
(45.5667°S, 177.5167°W)
Time: 17:45:31
(UTC+00:00)

COSMO-SKYMED 1 - Pass Details

Date: 29 May 2022
Orbit: 621 x 623 km, 97.9° (Epoch: 06 July)

Event Time Altitude Azimuth Distance (km) Brightness Sun altitude
Rises 04:46:37 0° 21° (NNE) 2,901 6.1 -5.3°
Reaches altitude 10° 04:48:48 10° 23° (NNE) 2,002 5.2 -5.6°
Maximum altitude 04:53:08 71° 106° (ESE) 672 2.6 -6.3°
Drops below altitude 10° 04:57:33 10° 189° (S) 2,031 5.1 -7.0°
Sets 04:59:46 0° 191° (S) 2,947 5.9 -7.4°
